Back to catalog

ONEWEB-0178

AliveCommunicationsPO
NORAD 48075·PAYLOAD·🇬🇧 United Kingdom

Launched Mar 25, 2021 from Vostochny Cosmodrome

Loading…

Next Passes (next 24 hours)

TLE

FreshSource: CelesTrak SupGP

Epoch: Sep 14, 2026, 15:30 UTC

1 48075C 21025AK  26257.64634676 -.00000829  00000+0 -22723-2 0  2573
2 48075  87.8918 302.4344 0001759  90.0035   9.6952 13.13473848    10

Track ONEWEB-0178 in real time with AllMySat

Download on the App Store